This is the latest recevied weather packets stored in our database for station/object IT9RID. If no packets are shown the sender has not sent any weather packets the latest 10 day(s).
| Time | Temp. | Humidity | Pressure | Rain* | Wind** | Luminosity | Snow |
|---|---|---|---|---|---|---|---|
| 1787592371 | 30° C | 71% | 1014 hPa | 0 mm | - | - | - |
| 1787591174 | 30° C | 70% | 1013.8 hPa | 0 mm | - | - | - |
| 1787590571 | 30.56° C | 68% | 1013.9 hPa | 0 mm | - | - | - |
| 1787589972 | 30.56° C | 68% | 1014 hPa | 0 mm | - | - | - |
| 1787589371 | 30.56° C | 68% | 1014.2 hPa | 0 mm | - | - | - |
| 1787588771 | 31.11° C | 67% | 1014.3 hPa | 0 mm | - | - | - |
| 1787588170 | 31.67° C | 65% | 1014.2 hPa | 0 mm | - | - | - |
| 1787587570 | 31.11° C | 62% | 1014.2 hPa | 0 mm | - | - | - |
| 1787586970 | 31.67° C | 63% | 1014.1 hPa | 0 mm | - | - | - |
| 1787586370 | 31.67° C | 63% | 1014.1 hPa | 0 mm | - | - | - |
| 1787585770 | 31.67° C | 64% | 1013.9 hPa | 0 mm | - | - | - |
| 1787585170 | 32.22° C | 62% | 1013.8 hPa | 0 mm | - | - | - |
| 1787584570 | 32.78° C | 58% | 1013.8 hPa | 0 mm | - | - | - |
| 1787583969 | 33.33° C | 55% | 1013.9 hPa | 0 mm | - | - | - |
| 1787583369 | 33.33° C | 54% | 1013.9 hPa | 0 mm | - | - | - |
| 1787582769 | 32.78° C | 51% | 1013.9 hPa | 0 mm | - | - | - |
| 1787582169 | 32.78° C | 52% | 1014 hPa | 0 mm | - | - | - |
| 1787581569 | 32.78° C | 51% | 1014 hPa | 0 mm | - | - | - |
| 1787580968 | 32.78° C | 50% | 1013.9 hPa | 0 mm | - | - | - |
| 1787580368 | 32.78° C | 50% | 1013.9 hPa | 0 mm | - | - | - |
| 1787579768 | 33.33° C | 51% | 1013.9 hPa | 0 mm | - | - | - |
| 1787579168 | 32.78° C | 52% | 1014 hPa | 0 mm | - | - | - |
| 1787578568 | 32.78° C | 54% | 1013.9 hPa | 0 mm | - | - | - |
| 1787577968 | 32.78° C | 50% | 1013.8 hPa | 0 mm | - | - | - |
| 1787577368 | 33.33° C | 48% | 1013.8 hPa | 0 mm | - | - | - |
* Rain latest hour (hover to see other rain measurements)
** Current wind speed in m/s (hover to see current wind gust speed)